CAPE
20 16 18 31 6 4 3 14 0 0 0 1 7 4 1 0 0 0 0 0 0 0 0 0 0 0 0 0 0 0 0 0 0 0 0 0 0 0 0 0 0 0 0 0 0 0 0 0 0 0 0 0 0 0
26 14 26 20 8 4 4 12 0 0 0 2 4 4 2 0 0 0 0 0 0 0 0 0 0 0 0 0 0 0 0 0 0 0 0 0 0 0 0 0 0 0 0 0 0 0 0 0 0 0 0 0 0 0
30 18 20 17 3 2 4 3 0 0 0 0 2 1 2 0 0 0 0 0 0 0 0 0 0 0 0 0 0 0 0 0 0 0 0 0 0 0 0 0 0 0 0 0 0 0 0 0 0 0 0 0 0 0
26 19 14 8 5 1 2 0 0 0 1 1 3 1 3 2 0 0 0 0 0 0 0 0 0 0 0 0 0 0 0 0 0 0 0 0 0 0 0 0 0 0 0 0 0 0 0 0 0 0 0 0 0 0
27 16 12 6 1 0 0 0 0 0 0 1 2 2 2 2 0 0 0 0 0 0 0 0 0 0 0 0 0 0 0 0 0 0 0 0 0 0 0 0 0 0 0 0 0 0 0 0 0 0 0 0 0 0
28 12 13 6 1 0 4 0 0 0 1 1 2 2 3 0 0 0 0 0 0 0 0 0 0 0 0 0 0 0 0 0 0 0 0 0 0 0 0 0 0 0 0 0 0 0 0 0 0 0 0 0 0 0
24 11 16 5 0 1 1 1 0 0 2 1 1 3 4 3 0 0 0 0 0 0 0 0 1 0 0 0 0 0 0 0 0 0 0 0 0 0 0 0 0 0 0 0 0 0 0 0 0 0 0 0 0 0
19 12 12 7 0 7 1 0 0 1 1 0 1 9 4 0 0 0 0 0 0 0 0 0 0 0 0 0 0 0 0 0 0 0 0 0 0 0 0 0 0 0 0 0 0 0 0 0 0 0 0 0 0 0
13 12 8 7 1 1 2 1 0 1 1 4 5 0 0 0 0 0 0 0 0 0 0 0 0 0 0 1 0 0 0 0 0 0 0 0 0 0 0 0 0 0 0 0 0 0 0 0 0 0 0 0 0 0
10 12 8 6 1 1 2 1 1 3 3 1 0 0 0 0 0 0 0 4 0 0 0 0 0 0 0 0 0 0 0 1 0 0 0 0 0 0 0 0 0 0 0 0 0 0 0 0 0 0 0 0 0 0
7 13 6 8 4 1 2 2 10 9 3 1 0 0 1 0 0 0 0 0 0 0 0 0 0 0 0 0 0 0 0 0 0 0 0 0 0 0 0 0 0 0 0 0 0 0 0 0 0 0 0 0 0 0
11 11 6 8 5 1 18 14 26 7 1 0 0 0 0 0 0 0 0 0 0 0 0 0 0 0 0 0 0 0 0 0 0 0 1 0 0 0 0 0 0 0 0 0 0 0 0 0 0 0 0 0 0 0
11 7 11 7 6 4 21 29 28 0 0 0 0 0 0 0 0 0 0 0 0 0 0 0 0 0 0 0 0 0 0 0 0 1 0 0 0 0 0 0 0 0 0 0 0 0 0 0 0 0 0 0 0 0
13 9 12 5 7 4 2 24 3 0 0 0 0 0 0 0 0 0 0 0 0 0 0 0 0 0 0 0 0 0 0 0 1 0 0 0 0 0 0 0 0 0 0 0 0 0 0 0 0 0 0 0 0 0
13 16 4 4 7 6 4 2 9 0 0 0 0 0 0 0 0 0 0 0 0 0 0 0 0 0 0 0 0 0 0 0 0 0 0 0 0 0 0 0 0 0 0 0 0 0 0 0 0 0 0 0 0 0
11 2 2 8 7 7 5 0 0 0 0 0 0 0 0 0 0 0 0 0 0 0 0 0 0 0 0 0 0 0 0 0 0 0 0 0 0 0 0 0 0 0 0 0 0 0 0 0 0 0 0 0 0 0
3 0 11 8 6 2 5 1 1 0 0 0 0 0 0 0 0 0 0 0 0 0 0 0 0 0 0 0 0 0 0 0 0 0 0 0 0 0 0 0 0 0 0 0 0 0 0 0 0 0 0 0 0 0
0 1 9 10 4 2 1 0 0 0 0 0 0 0 0 0 0 0 0 0 0 0 0 0 0 0 0 0 0 0 0 0 0 0 0 0 0 0 0 0 0 0 0 0 0 0 0 0 0 0 0 0 0 0
1 0 4 1 2 0 0 0 0 0 0 0 0 0 0 0 0 0 0 0 0 0 0 0 0 0 0 0 0 0 0 0 0 0 0 0 0 0 0 0 0 0 0 0 0 0 0 0 0 0 0 0 0 0
1 12 3 0 0 0 0 0 0 0 0 0 0 0 0 0 0 0 0 0 0 0 0 0 0 0 0 0 0 0 0 0 0 0 0 0 0 0 0 0 0 0 0 0 0 0 0 0 0 0 0 0 0 0
0 3 0 1 0 0 0 0 0 0 0 0 0 0 1 0 2 1 0 0 0 0 0 0 0 0 0 0 0 0 0 0 0 0 0 0 0 0 0 0 0 0 0 0 0 0 0 0 0 0 0 0 0 0
0 1 0 0 0 0 0 0 0 0 0 0 0 0 0 0 0 0 0 0 0 0 0 0 0 0 0 0 0 0 0 0 0 0 0 0 0 0 0 0 0 0 0 0 0 0 0 0 0 0 0 0 0 0
0 0 0 0 0 0 0 0 0 0 0 0 0 0 0 0 0 0 0 0 0 0 0 0 0 0 0 0 0 0 0 0 0 0 0 0 0 0 0 0 0 0 0 0 0 0 0 0 0 0 0 0 0 0
0 0 0 0 0 0 0 0 0 0 0 0 0 0 0 0 0 0 0 0 0 0 0 0 0 0 0 0 0 0 0 0 0 0 0 0 0 0 0 0 0 0 0 0 0 0 0 0 0 0 0 0 0 0
0 0 0 0 0 0 0 0 0 0 0 0 0 0 0 0 0 0 0 0 0 0 0 0 0 0 0 0 0 0 0 0 0 0 0 0 0 0 0 0 0 0 0 0 0 0 0 0 0 0 0 0 0 0
0 0 0 0 0 0 0 0 0 0 0 0 0 0 0 0 0 0 0 0 0 0 0 0 0 0 0 0 0 0 0 0 0 0 0 0 0 0 0 0 0 0 0 0 0 0 0 0 0 0 0 0 0 0
0 0 0 0 0 0 0 0 0 0 0 0 0 0 0 0 0 0 0 0 0 0 0 0 0 0 0 0 0 0 0 0 0 0 0 0 0 0 0 0 0 0 0 0 0 0 0 0 0 0 0 0 0 0
0 0 0 0 0 0 0 0 0 0 0 0 0 0 0 0 0 0 0 0 0 0 0 0 0 0 0 0 0 0 0 0 0 0 0 0 0 0 0 0 0 0 0 0 0 0 0 0 0 0 0 0 0 0
0 0 0 0 0 0 0 0 0 0 0 0 0 0 0 0 0 0 0 0 0 0 0 0 0 0 0 0 0 0 0 0 0 0 0 0 0 0 0 0 0 0 0 0 0 0 0 0 0 0 0 0 0 0
0 0 0 0 0 0 0 0 0 0 0 0 0 0 0 0 0 0 0 0 0 0 0 0 0 0 0 0 0 0 0 0 0 0 0 0 0 0 0 0 0 0 0 0 0 0 0 0 0 0 0 0 0 0
0 0 0 0 0 0 0 0 0 0 0 0 0 0 0 0 0 0 0 0 0 0 0 0 0 0 0 0 0 0 0 0 0 0 0 0 0 0 0 0 0 0 0 0 0 0 0 0 0 0 0 0 0 0
0 0 0 0 0 0 0 0 0 0 0 0 0 0 0 0 0 0 0 0 0 0 0 0 0 0 0 0 0 0 0 0 0 0 0 0 0 0 0 0 0 0 0 0 0 0 0 0 0 0 0 0 0 0
0 0 0 0 0 0 0 0 0 0 0 0 0 0 0 0 0 0 0 0 0 0 0 0 0 0 0 0 0 0 0 0 0 0 0 0 0 0 0 0 0 0 0 0 0 0 0 0 0 0 0 0 0 0
CIN
0 0 0 0 0 -2 0 -7 -10 0 0 -6 -4 -3 -2 0 0 0 0 0 0 0 0 0 0 0 0 0 0 0 0 0 0 0 0 0 0 0 0 0 0 0 0 0 0 0 0 0 0 0 0 0 0 0
0 0 0 0 0 -1 0 -8 -5 0 0 -3 -5 -5 -5 0 0 0 0 0 0 0 0 0 0 0 0 0 0 0 0 0 0 0 0 0 0 0 0 0 0 0 0 0 0 0 0 0 0 0 0 0 0 0
0 0 0 0 0 0 0 -13 0 0 0 -1 -4 -5 -5 -2 0 0 0 0 0 0 0 0 0 0 0 0 0 0 0 0 0 0 0 0 0 0 0 0 0 0 0 0 0 0 0 0 0 0 0 0 0 0
0 0 0 0 0 0 0 0 0 0 -6 -4 -4 -4 -4 0 0 0 0 0 0 0 0 0 0 0 0 0 0 0 0 0 0 0 0 0 0 0 0 0 0 0 0 0 0 0 0 0 0 0 0 0 0 0
0 0 0 0 0 0 0 0 0 0 -5 -4 -3 -4 -4 -2 0 0 0 0 0 0 0 0 0 0 0 0 0 0 0 0 0 0 0 0 0 0 0 0 0 0 0 0 0 0 0 0 0 0 0 0 0 0
0 0 0 0 0 0 0 0 0 0 -4 -4 -4 -4 -4 0 0 0 0 0 0 0 0 0 0 0 0 0 0 0 0 0 0 0 0 0 0 0 0 0 0 0 0 0 0 0 0 0 0 0 0 0 0 0
0 0 0 0 0 0 0 0 0 -3 -2 -4 -1 -3 -2 -2 0 0 0 0 0 0 0 0 0 0 0 0 0 0 0 0 0 0 0 0 0 0 0 0 0 0 0 0 0 0 0 0 0 0 0 0 0 0
0 0 0 0 0 0 0 0 0 -3 -2 -5 -2 -1 -10 0 0 0 0 0 0 0 0 0 0 0 0 0 0 0 0 0 0 0 0 0 0 0 0 0 0 0 0 0 0 0 0 0 0 0 0 0 0 0
0 0 0 0 0 0 0 0 -1 -2 -5 -2 -2 -9 0 0 0 0 0 0 0 0 0 0 0 0 0 0 0 0 0 0 0 0 0 0 0 0 0 0 0 0 0 0 0 0 0 0 0 0 0 0 0 0
0 0 0 0 0 0 0 0 -1 -2 -3 -6 -5 0 0 0 0 0 0 -14 0 0 0 0 0 0 0 0 0 0 0 0 0 0 0 0 0 0 0 0 0 0 0 0 0 0 0 0 0 0 0 0 0 0
0 0 0 0 0 0 0 0 0 0 -3 -9 0 0 0 0 0 0 0 0 0 0 0 0 0 0 0 0 0 0 0 0 0 0 0 0 0 0 0 0 0 0 0 0 0 0 0 0 0 0 0 0 0 0
0 0 0 0 0 0 0 -1 0 -1 -2 0 0 0 0 0 0 0 -1 0 0 0 0 0 0 0 0 0 0 0 0 0 0 0 -1 0 0 0 0 0 0 0 0 0 0 0 0 0 0 0 0 0 0 0
0 0 0 0 0 0 0 0 -3 0 0 0 0 0 0 0 0 0 0 0 0 0 0 0 0 0 0 0 0 0 0 0 0 -3 0 0 0 0 0 0 0 0 0 0 0 0 0 0 0 0 0 0 0 0
0 0 0 0 0 0 0 -4 -6 -3 0 0 0 0 0 0 0 0 0 0 0 0 0 0 0 0 0 0 0 0 0 0 0 0 0 0 0 0 0 0 0 0 0 0 0 0 0 0 0 0 0 0 0 0
0 0 0 0 0 0 0 0 -5 -2 0 0 0 0 0 0 0 0 0 0 0 0 0 0 0 0 0 0 0 0 0 0 0 0 0 0 0 0 0 0 0 0 0 0 0 0 0 0 0 0 0 0 0 0
0 -1 0 0 0 0 0 0 0 0 0 0 0 0 0 0 0 0 0 0 0 -1 0 0 0 0 0 0 0 0 0 0 0 0 0 0 0 0 0 0 0 0 0 0 0 0 0 0 0 0 0 0 0 0
-5 0 0 0 0 0 0 0 0 0 0 0 0 0 0 0 0 0 0 0 0 0 0 0 0 0 0 0 0 0 0 0 0 0 0 0 0 0 0 0 0 0 0 0 0 0 0 0 0 0 0 0 0 0
0 -7 0 0 0 0 0 0 0 0 0 0 0 0 0 0 0 0 0 0 0 0 0 0 0 0 0 0 0 0 0 0 0 0 0 0 0 0 0 0 0 0 0 0 0 0 0 0 0 0 0 0 0 0
-2 0 0 0 0 0 0 0 0 0 0 0 0 0 0 0 0 0 0 0 0 0 0 0 0 0 0 0 0 0 0 0 0 0 0 0 0 0 0 0 0 0 0 0 0 0 0 0 0 0 0 0 0 0
-1 0 -3 0 0 0 0 0 0 0 0 0 0 0 0 0 0 0 0 0 0 0 0 0 0 0 0 0 0 0 0 0 0 0 0 0 0 0 0 0 0 0 0 0 0 0 0 0 0 0 0 0 0 0
0 -1 0 0 0 0 0 0 0 0 0 0 0 0 0 0 0 0 0 0 0 0 0 0 0 0 0 0 0 0 0 0 0 0 0 0 0 0 0 0 0 0 0 0 0 0 0 0 0 0 0 0 0 0
-1 -6 0 0 0 0 0 0 0 0 0 0 0 0 0 0 0 0 0 0 0 0 0 0 0 0 0 0 0 0 0 0 0 0 0 0 0 0 0 0 0 0 0 0 0 0 0 0 0 0 0 0 0 0
0 0 0 0 0 0 0 0 0 0 0 0 0 0 0 0 0 0 0 0 0 0 0 0 0 0 0 0 0 0 0 0 0 0 0 0 0 0 0 0 0 0 0 0 0 0 0 0 0 0 0 0 0 0
0 0 0 0 0 0 0 0 0 0 0 0 0 0 0 0 0 0 0 0 0 0 0 0 0 0 0 0 0 0 0 0 0 0 0 0 0 0 0 0 0 0 0 0 0 0 0 0 0 0 0 0 0 0
0 0 0 0 0 0 0 0 0 0 0 0 0 0 0 0 0 0 0 0 0 0 0 0 0 0 0 0 0 0 0 0 0 0 0 0 0 0 0 0 0 0 0 0 0 0 0 0 0 0 0 0 0 0
0 0 0 0 0 0 0 0 0 0 0 0 0 0 0 0 0 0 0 0 0 0 0 0 0 0 0 0 0 0 0 0 0 0 0 0 0 0 0 0 0 0 0 0 0 0 0 0 0 0 0 0 0 0
0 0 0 0 0 0 0 0 0 0 0 0 0 0 0 0 0 0 0 0 0 0 0 0 0 0 0 0 0 0 0 0 0 0 0 0 0 0 0 0 0 0 0 0 0 0 0 0 0 0 0 0 0 0
0 0 0 0 0 0 0 0 0 0 0 0 0 0 0 0 0 0 0 0 0 0 0 0 0 0 0 0 0 0 0 0 0 0 0 0 0 0 0 0 0 0 0 0 0 0 0 0 0 0 0 0 0 0
0 0 0 0 0 0 0 0 0 0 0 0 0 0 0 0 0 0 0 0 0 0 0 0 0 0 0 0 0 0 0 0 0 0 0 0 0 0 0 0 0 0 0 0 0 0 0 0 0 0 0 0 0 0
0 0 0 0 0 0 0 0 0 0 0 0 0 0 0 0 0 0 0 0 0 0 0 0 0 0 0 0 0 0 0 0 0 0 0 0 0 0 0 0 0 0 0 0 0 0 0 0 0 0 0 0 0 0
0 0 0 0 0 0 0 0 0 0 0 0 0 0 0 0 0 0 0 0 0 0 0 0 0 0 0 0 0 0 0 0 0 0 0 0 0 0 0 0 0 0 0 0 0 0 0 0 0 0 0 0 0 0
0 0 0 0 0 0 0 0 0 0 0 0 0 0 0 0 0 0 0 0 0 0 0 0 0 0 0 0 0 0 0 0 0 0 0 0 0 0 0 0 0 0 0 0 0 0 0 0 0 0 0 0 0 0
0 0 0 0 0 0 0 0 0 0 0 0 0 0 0 0 0 0 0 0 0 0 0 0 0 0 0 0 0 0 0 0 0 0 0 0 0 0 0 0 0 0 0 0 0 0 0 0 0 0 0 0 0 0
Wind_Speed
37 37 36 35 39 38 38 34 30 26 24 22 20 19 18 18 18 17 19 20 19 16 15 16 16 13 13 14 11 7 8 17 15 13 12 11 12 14 16 15 16 17 15 19 19 24 30 13 15 17 14 8 6 8
37 36 35 35 36 38 36 31 28 24 24 22 19 20 19 19 19 18 20 18 18 15 15 14 12 13 15 15 12 16 16 14 14 12 14 12 14 14 15 17 21 19 19 20 13 19 14 13 13 6 7 6 10 14
36 37 36 36 38 38 37 32 28 28 25 22 20 20 19 18 18 19 19 17 17 15 15 16 17 15 14 16 17 18 18 16 17 16 12 14 17 15 15 17 15 19 16 17 14 12 11 9 8 10 10 11 14 18
37 37 36 37 38 40 39 28 28 27 24 22 21 19 19 16 16 17 18 18 17 16 19 20 18 17 19 18 17 18 16 14 12 15 17 18 18 17 18 18 18 17 14 16 18 12 12 11 12 11 13 16 18 21
37 36 37 38 40 42 40 25 27 25 23 21 19 17 18 15 14 13 14 17 18 19 18 19 15 18 18 15 14 13 11 14 17 18 19 21 19 18 19 19 21 18 19 18 22 12 13 13 12 14 16 19 20 22
36 35 36 36 36 42 34 27 24 22 21 18 17 16 15 13 9 15 17 19 17 16 17 16 18 18 15 13 13 15 17 18 19 20 20 19 18 20 22 22 19 18 19 18 19 10 15 11 14 16 16 18 20 22
34 33 33 30 32 41 28 24 21 21 15 14 15 14 13 12 15 18 19 15 16 16 18 18 18 18 19 18 18 18 18 19 19 19 21 20 20 19 23 28 21 18 13 13 10 10 15 13 15 15 17 19 22 25
33 32 30 29 30 34 24 22 20 19 16 12 14 11 7 6 10 16 15 14 14 13 15 19 19 18 18 18 19 19 19 19 20 21 20 22 20 23 30 23 20 18 12 12 11 14 13 10 14 18 20 21 25 29
32 30 29 28 25 32 25 21 20 19 15 12 9 6 10 15 16 14 12 13 12 16 19 21 19 20 17 17 16 17 19 20 21 21 21 20 23 25 21 18 15 11 11 7 9 11 13 17 18 19 22 25 29 31
30 28 27 26 24 33 25 21 21 20 17 15 11 14 16 13 8 10 15 17 18 20 18 21 16 19 16 18 18 17 18 19 23 21 19 24 28 23 17 15 13 9 9 5 10 15 18 18 20 23 25 27 29 29
29 27 25 24 23 23 24 21 22 22 20 17 17 16 11 10 12 15 18 19 20 21 20 19 18 15 16 18 17 18 18 19 23 23 22 25 27 23 20 19 13 8 5 12 14 13 15 18 22 26 28 28 28 28
27 26 24 23 22 23 25 22 25 22 21 19 12 9 10 14 16 20 22 20 21 23 16 14 14 13 14 13 16 18 20 20 23 18 21 25 22 16 15 13 12 9 9 11 12 13 17 21 23 25 27 29 29 28
27 25 24 23 22 23 30 25 27 16 15 13 16 19 17 18 24 27 27 24 23 16 14 11 11 13 13 15 16 18 21 22 17 21 24 22 16 11 9 7 6 4 4 7 12 16 19 21 23 26 28 28 28 27
26 25 23 21 20 18 28 25 22 18 18 22 22 24 26 24 30 28 26 20 17 13 7 8 11 13 13 15 16 19 19 17 23 27 26 18 10 5 3 4 5 6 9 12 15 18 21 24 26 27 27 28 28 27
24 22 21 20 18 13 11 19 23 21 20 22 21 27 28 24 22 23 20 18 16 6 7 7 13 14 14 16 17 18 20 25 25 26 20 9 3 1 1 5 8 10 13 16 19 21 23 25 27 29 28 28 26 25
23 20 19 19 17 15 13 18 22 22 22 21 23 22 21 23 23 22 19 16 13 9 7 13 15 16 18 16 18 20 20 24 22 16 9 1 4 2 4 8 12 16 18 21 22 24 24 25 27 29 29 28 27 25
21 19 19 16 17 16 15 19 23 26 26 24 26 24 20 21 22 20 17 15 11 12 16 16 17 19 14 19 19 17 21 21 16 9 0 3 3 3 8 13 16 19 21 23 24 23 24 25 26 28 31 30 26 24
21 20 19 18 18 17 17 18 21 23 27 27 27 23 23 22 17 16 17 12 15 16 17 20 16 21 22 21 22 19 15 12 6 2 0 4 8 11 14 19 22 24 24 25 25 24 24 26 28 30 29 27 25 24
21 20 18 18 18 19 20 20 20 25 24 24 24 24 23 20 18 15 14 14 13 13 12 16 20 22 22 19 14 9 9 8 6 7 8 11 14 18 22 24 25 25 26 25 24 24 24 25 27 27 26 25 25 25
18 16 18 19 18 19 22 21 20 23 27 26 24 24 24 23 19 16 15 16 16 17 20 22 22 16 12 11 9 7 7 8 10 13 17 19 21 23 25 25 25 25 24 23 23 23 24 25 26 26 25 24 24 25
17 19 19 18 18 17 20 20 21 21 21 23 21 23 24 22 21 19 19 18 19 20 20 17 12 10 9 9 10 10 11 14 16 18 21 23 23 25 25 25 23 22 23 22 23 24 24 25 24 23 24 24 24 25
17 18 18 17 19 19 19 18 19 20 22 21 21 21 22 24 23 22 19 22 22 21 18 15 15 12 12 13 14 15 16 17 18 20 21 22 25 25 25 23 22 22 22 22 23 23 23 22 22 22 23 24 24 25
15 17 17 17 19 19 21 18 20 19 22 23 23 24 24 24 22 19 23 21 20 17 14 14 15 15 14 16 16 19 20 21 23 24 25 24 23 22 21 21 21 22 23 24 21 20 21 21 22 22 22 23 24 25
16 16 17 18 19 21 18 21 19 20 19 20 23 25 24 24 21 24 25 22 19 17 18 20 18 19 19 20 23 24 24 23 22 22 22 20 20 21 21 22 22 22 21 19 19 20 20 21 21 22 23 24 25 28
16 17 17 19 18 18 20 20 20 21 22 20 21 22 22 20 24 25 25 24 22 22 22 22 22 22 23 23 21 21 21 21 21 22 21 20 19 20 21 21 22 21 20 19 20 19 20 20 21 22 23 25 27 29
16 17 17 18 19 20 20 21 22 21 19 21 20 19 20 21 25 26 23 19 18 19 19 18 18 18 19 19 19 20 21 21 20 20 21 20 20 21 21 22 22 23 21 17 17 18 19 20 21 23 25 26 28 30
17 16 16 15 15 16 18 19 19 20 22 22 18 18 19 23 24 20 16 16 16 16 15 16 15 15 16 17 17 18 19 19 19 18 18 20 21 21 20 20 20 18 16 16 16 17 19 20 22 24 26 27 29 31
15 12 15 13 16 17 18 19 21 22 23 20 19 23 22 23 22 16 16 14 12 11 12 14 14 14 15 16 16 16 17 17 16 16 18 20 21 20 18 16 15 14 15 16 17 18 19 21 23 25 27 30 32 31
9 11 11 14 16 17 18 18 19 19 17 17 21 22 19 16 14 13 13 13 12 13 14 14 15 14 15 16 17 17 16 17 20 21 22 20 20 19 16 15 15 15 16 18 19 20 20 21 24 26 28 30 31 32
11 10 9 10 14 17 17 16 18 16 17 17 17 18 18 17 17 17 18 18 18 19 18 18 16 18 18 19 19 20 21 21 21 20 19 18 16 12 12 14 15 17 18 18 19 21 22 24 25 28 30 33 34 34
11 10 8 7 7 15 17 16 16 16 17 19 20 21 21 20 20 20 20 21 20 19 18 18 19 19 19 19 20 20 20 20 18 16 14 12 10 11 12 14 15 17 18 19 20 22 24 26 29 32 34 34 34 33
12 11 9 9 8 15 13 16 18 19 21 21 22 21 21 22 24 23 23 23 22 21 21 19 19 19 18 17 17 17 14 13 13 12 11 10 11 11 13 15 16 18 19 20 22 24 26 29 31 32 31 32 33 33
11 12 12 11 10 8 10 13 20 21 21 21 21 21 21 22 24 21 19 19 19 17 15 15 14 13 13 13 12 11 12 14 14 12 11 11 11 12 14 16 17 18 20 22 24 26 27 28 28 29 30 30 30 31
Wind_Direction
287 284 278 269 257 258 252 249 255 261 262 265 268 269 273 275 272 272 261 254 253 265 269 261 257 259 251 250 248 239 252 247 251 255 260 271 272 259 262 269 269 270 277 277 284 281 278 300 294 292 309 333 341 333
288 285 278 271 263 258 255 248 252 258 256 258 262 263 265 269 265 266 258 257 254 264 267 264 271 265 258 259 262 239 257 251 258 266 276 283 284 281 279 278 265 280 278 287 299 295 318 305 311 336 338 345 322 320
288 284 279 270 260 255 252 243 247 248 249 251 256 257 261 265 262 261 259 256 256 259 265 262 258 269 275 266 259 250 256 264 263 267 285 288 283 285 284 284 292 282 294 302 311 320 321 322 328 324 329 326 324 322
291 286 280 269 260 249 245 239 240 242 243 246 250 254 256 262 264 259 258 257 260 262 258 261 269 268 272 276 271 267 268 276 281 278 280 279 283 288 285 290 291 300 306 305 305 319 315 310 311 315 319 321 323 323
292 289 283 271 260 240 238 232 235 236 238 241 246 251 253 258 263 262 264 262 263 260 265 262 273 277 278 281 284 282 277 276 277 282 284 282 287 291 294 298 296 302 302 298 299 308 307 302 305 313 315 317 321 323
294 291 286 274 258 233 232 225 229 230 232 235 242 247 251 254 254 261 263 264 266 266 267 270 273 276 279 283 284 282 280 281 281 282 285 291 297 291 290 292 303 310 309 306 304 317 308 310 310 314 318 321 324 326
295 291 290 279 257 228 223 219 222 223 222 228 236 242 248 249 257 260 264 267 265 269 265 268 273 276 273 276 278 279 284 285 287 288 287 289 291 296 292 289 300 307 315 322 329 322 309 308 310 321 324 325 325 325
295 293 290 281 262 223 215 212 211 213 214 214 225 234 238 253 262 268 277 276 271 272 273 268 273 271 275 276 271 280 280 284 288 286 290 287 292 292 287 296 304 308 305 305 312 315 319 329 327 324 325 326 325 325
295 293 289 281 272 221 215 205 200 202 193 191 193 183 250 259 260 264 275 284 287 270 262 266 264 268 274 276 282 282 283 283 288 286 287 292 286 283 293 298 305 310 310 306 317 322 323 321 323 325 326 325 325 326
295 293 291 283 266 228 214 205 196 186 178 168 208 251 256 259 257 268 275 268 269 269 274 267 273 268 274 273 277 281 287 283 280 288 296 286 283 288 292 300 310 304 307 317 313 311 317 322 325 327 327 328 328 329
295 291 289 288 270 250 212 201 192 175 170 219 240 254 249 246 263 273 265 263 266 266 268 268 267 270 286 271 277 283 286 289 284 285 286 288 289 291 287 281 289 298 295 314 325 331 333 332 329 328 329 331 331 332
294 288 286 291 274 263 215 199 191 199 222 226 229 231 244 262 268 260 257 266 267 264 271 268 265 274 283 290 286 285 284 287 286 296 290 291 295 303 308 297 280 272 294 314 328 333 333 332 333 333 333 333 333 333
292 288 288 290 283 266 218 201 203 204 172 213 241 245 250 257 253 248 249 260 266 268 266 263 259 276 278 289 289 288 283 284 298 289 291 295 303 308 323 345 1 4 349 336 331 332 333 335 336 335 333 334 334 333
285 288 288 283 286 273 223 195 185 199 224 235 240 236 244 252 251 251 253 264 269 269 241 226 262 283 285 282 289 285 289 293 286 286 289 298 292 299 329 349 355 344 334 328 328 328 328 329 330 333 333 334 334 333
279 284 287 279 283 281 250 214 206 224 237 243 244 244 245 253 261 258 261 265 269 233 211 241 280 284 279 285 286 289 288 287 290 293 300 292 257 208 339 339 336 334 332 328 327 326 326 327 328 329 332 333 334 335
276 274 277 286 282 277 259 226 218 231 243 248 247 250 249 249 257 256 256 257 253 214 228 280 281 281 281 285 284 281 285 289 301 301 307 98 119 82 354 338 332 329 327 325 325 325 326 327 327 329 332 334 335 335
268 264 280 280 277 273 262 235 233 236 242 249 250 249 251 257 253 256 254 251 235 216 252 274 273 275 290 284 281 286 287 295 300 302 119 116 96 359 344 336 332 329 328 327 327 327 328 331 332 332 331 334 335 336
260 268 279 285 276 264 254 250 243 242 242 246 245 245 250 257 253 252 258 237 233 244 268 272 282 274 276 279 282 285 291 300 316 357 22 332 330 330 329 326 326 327 327 327 328 328 329 331 331 332 334 337 339 339
267 269 278 290 279 260 253 251 253 245 249 246 247 245 252 259 263 253 250 244 247 256 272 280 279 273 277 286 289 288 295 296 304 315 317 320 321 320 320 321 324 325 325 326 326 328 331 333 334 336 338 339 338 340
274 278 282 287 282 261 253 255 257 254 248 249 248 248 253 255 252 249 241 248 253 255 269 272 276 282 284 293 304 309 313 316 312 306 307 313 316 317 319 321 322 325 326 329 331 333 333 334 338 339 340 341 340 340
280 279 284 284 274 270 260 258 255 256 257 253 247 250 253 250 246 244 246 250 256 259 263 273 266 280 296 302 307 310 310 311 309 311 310 311 318 319 321 322 325 326 326 328 328 331 333 334 337 340 341 342 343 344
284 287 280 281 268 267 264 270 265 263 258 252 251 255 250 246 246 250 250 256 258 259 265 263 268 277 287 295 301 307 309 311 313 314 316 317 317 319 320 321 323 324 328 329 330 331 334 338 340 341 342 343 345 345
295 287 278 277 266 264 262 273 259 267 255 252 253 251 253 252 253 255 257 260 264 264 266 271 279 287 290 296 301 305 307 306 307 310 313 316 318 321 323 325 326 326 326 329 334 336 337 340 342 342 344 344 345 344
303 287 272 268 269 261 271 261 266 262 265 259 255 253 253 254 258 258 257 261 263 267 270 276 281 284 292 294 296 301 304 307 309 313 315 316 317 320 324 327 329 331 332 335 336 338 340 342 344 345 345 344 344 341
295 285 276 266 272 266 262 261 260 260 258 263 260 259 257 263 257 258 260 262 265 269 275 282 284 285 286 291 297 302 310 311 310 309 316 318 320 322 325 328 330 332 334 334 334 338 340 343 345 345 345 342 341 341
295 291 281 272 270 264 263 260 260 260 263 262 264 266 267 264 261 262 264 268 272 274 278 281 284 289 292 296 298 302 309 314 315 314 318 321 321 320 319 321 323 327 333 337 340 340 342 344 344 342 342 342 341 340
297 294 290 288 280 274 270 269 270 267 262 261 264 265 266 262 263 269 277 282 283 286 292 296 298 296 299 304 313 315 318 320 320 322 325 326 326 325 324 323 324 333 341 344 346 346 344 343 342 341 341 341 340 339
321 328 294 295 290 284 275 269 266 265 264 266 266 264 265 266 270 280 284 287 291 296 302 306 310 312 314 316 319 323 325 328 332 334 335 335 335 336 339 343 349 351 352 353 351 348 346 344 342 341 340 339 339 343
44 347 327 302 294 289 282 277 274 274 274 268 267 266 272 283 282 284 286 290 297 299 301 305 308 315 318 320 321 323 324 321 318 317 318 320 323 329 341 349 352 352 349 347 346 345 345 346 342 343 342 341 341 343
123 90 13 336 307 291 291 289 285 285 281 279 280 280 280 282 284 289 287 288 289 291 295 299 304 305 307 310 312 315 317 318 319 318 318 319 324 341 346 347 347 348 349 349 348 346 346 345 345 344 342 341 341 342
88 106 71 81 8 307 291 293 298 295 291 287 285 279 279 283 286 291 293 293 293 294 296 297 301 304 307 309 311 312 314 321 324 327 331 339 348 348 348 349 351 351 350 349 348 346 344 343 342 341 340 341 343 344
93 100 87 94 27 311 320 303 295 288 284 283 281 281 281 283 283 289 294 293 292 291 293 296 298 301 308 312 316 319 327 333 338 344 348 350 351 352 351 350 350 350 349 347 346 343 342 341 341 342 343 344 345 346
92 93 92 77 37 52 329 319 278 276 279 281 281 281 282 283 282 289 300 303 297 297 301 305 312 317 320 323 328 334 333 330 328 334 347 352 357 356 353 352 351 349 347 345 342 342 343 344 345 346 346 347 349 350